Temp
-5 -5 -5 -5 -6 -6 -7 -7 -7 -8 -10 -10 -9 -8 -8 -8 -8 -8 -8 -8 -7 -8 -8 -8 -8 -8 -8 -8 -8 -8 -9 -8 -8 -9 -9 -9 -9 -10 -10 -11 -12 -12 -12
-5 -5 -5 -5 -6 -6 -7 -7 -8 -9 -10 -10 -9 -9 -8 -8 -9 -9 -9 -8 -8 -8 -8 -8 -8 -8 -8 -8 -10 -9 -8 -9 -9 -9 -9 -9 -10 -10 -10 -11 -11 -10 -10
-5 -5 -5 -6 -6 -7 -7 -8 -8 -8 -9 -10 -9 -8 -8 -8 -10 -10 -10 -9 -8 -9 -9 -9 -9 -9 -9 -10 -11 -10 -9 -10 -9 -9 -9 -10 -10 -11 -11 -11 -10 -10 -10
-6 -6 -5 -6 -6 -7 -7 -7 -8 -8 -9 -9 -10 -8 -9 -10 -10 -11 -10 -9 -9 -9 -10 -9 -9 -10 -10 -10 -10 -10 -10 -10 -10 -10 -11 -11 -11 -10 -10 -10 -10 -11 -11
-6 -6 -6 -6 -7 -7 -7 -8 -8 -8 -9 -8 -10 -9 -9 -9 -10 -10 -10 -10 -9 -10 -10 -10 -9 -9 -9 -9 -10 -10 -10 -10 -10 -10 -10 -10 -10 -10 -10 -11 -11 -11 -11
-6 -6 -6 -6 -7 -7 -7 -7 -8 -8 -8 -8 -9 -10 -10 -10 -10 -10 -10 -10 -10 -10 -10 -10 -10 -10 -10 -10 -10 -9 -9 -9 -9 -10 -10 -10 -10 -10 -11 -11 -11 -11 -11
-7 -6 -6 -6 -7 -7 -7 -7 -8 -8 -9 -9 -9 -9 -10 -11 -11 -11 -10 -10 -10 -11 -10 -10 -10 -10 -10 -10 -10 -10 -10 -10 -10 -10 -10 -10 -11 -11 -11 -12 -12 -12 -12
-8 -7 -7 -7 -7 -8 -8 -7 -8 -8 -9 -10 -9 -10 -10 -10 -11 -11 -10 -10 -11 -11 -11 -11 -11 -10 -10 -10 -10 -10 -10 -10 -11 -11 -11 -11 -11 -11 -11 -12 -12 -12 -13
-8 -8 -7 -7 -7 -8 -8 -8 -8 -9 -9 -9 -10 -10 -10 -10 -10 -11 -11 -11 -11 -11 -11 -11 -11 -11 -10 -10 -10 -10 -10 -10 -10 -11 -11 -11 -11 -11 -12 -12 -12 -12 -13
-9 -9 -8 -8 -8 -8 -8 -8 -8 -9 -9 -9 -9 -9 -9 -10 -11 -10 -11 -10 -11 -11 -11 -11 -11 -10 -11 -11 -11 -10 -11 -10 -11 -11 -11 -11 -12 -12 -12 -12 -12 -13 -13
-10 -9 -9 -9 -8 -9 -8 -9 -9 -9 -9 -9 -9 -9 -10 -10 -10 -11 -10 -10 -11 -11 -11 -11 -11 -11 -11 -11 -11 -11 -11 -11 -11 -11 -11 -11 -12 -12 -12 -12 -12 -12 -13
-10 -10 -10 -10 -10 -10 -9 -9 -10 -10 -10 -10 -9 -10 -10 -11 -11 -11 -11 -10 -11 -11 -10 -10 -10 -10 -10 -11 -11 -11 -11 -11 -12 -12 -12 -12 -12 -12 -12 -12 -12 -13 -13
-11 -11 -11 -10 -10 -10 -9 -10 -10 -10 -10 -10 -10 -10 -10 -10 -11 -11 -11 -10 -11 -10 -10 -10 -10 -10 -11 -11 -11 -11 -12 -12 -12 -12 -12 -12 -12 -12 -12 -13 -13 -13 -13
-12 -11 -11 -11 -11 -11 -11 -10 -10 -10 -10 -10 -11 -11 -11 -11 -11 -11 -11 -10 -10 -10 -10 -10 -10 -11 -11 -11 -12 -12 -12 -12 -12 -12 -12 -13 -13 -13 -13 -13 -13 -13 -13
-12 -12 -12 -12 -12 -11 -11 -11 -11 -11 -10 -11 -11 -10 -11 -11 -11 -11 -11 -11 -11 -11 -11 -11 -10 -10 -11 -11 -11 -11 -12 -12 -12 -13 -13 -13 -13 -13 -13 -13 -13 -13 -14
-12 -12 -12 -12 -12 -11 -11 -11 -12 -11 -11 -11 -11 -11 -11 -11 -10 -11 -11 -11 -11 -11 -11 -11 -11 -11 -11 -12 -12 -12 -12 -12 -12 -13 -13 -13 -13 -13 -13 -13 -13 -13 -14
-12 -12 -12 -12 -12 -12 -11 -11 -12 -12 -11 -11 -11 -11 -11 -11 -11 -11 -11 -11 -11 -11 -11 -11 -11 -12 -12 -12 -12 -12 -12 -12 -13 -13 -13 -13 -14 -14 -14 -13 -14 -14 -14
-13 -13 -12 -12 -12 -12 -11 -11 -11 -12 -11 -11 -11 -11 -11 -11 -11 -11 -11 -11 -11 -11 -12 -12 -12 -12 -12 -12 -12 -12 -12 -12 -13 -13 -13 -14 -14 -14 -14 -14 -14 -14 -15
-12 -12 -12 -12 -12 -11 -11 -12 -11 -11 -11 -11 -11 -12 -12 -11 -11 -11 -11 -11 -11 -12 -12 -12 -12 -12 -12 -12 -12 -12 -12 -13 -13 -13 -14 -14 -14 -14 -14 -15 -15 -15 -15
-11 -12 -11 -11 -11 -11 -11 -11 -12 -11 -11 -11 -11 -11 -11 -11 -11 -11 -11 -12 -12 -12 -12 -12 -12 -12 -13 -13 -13 -13 -13 -13 -13 -13 -14 -14 -14 -14 -15 -15 -15 -15 -15
-12 -11 -11 -11 -11 -11 -11 -11 -11 -12 -11 -11 -11 -11 -11 -11 -11 -12 -12 -12 -12 -12 -13 -13 -13 -13 -13 -13 -13 -13 -13 -13 -13 -14 -14 -14 -14 -14 -14 -15 -15 -15 -15
-12 -11 -12 -11 -11 -11 -11 -11 -11 -12 -11 -11 -11 -11 -11 -11 -11 -12 -12 -12 -13 -13 -13 -13 -13 -13 -13 -13 -13 -13 -13 -14 -14 -14 -14 -14 -14 -14 -14 -14 -15 -15 -15
-11 -11 -11 -11 -11 -11 -11 -11 -11 -11 -12 -11 -12 -12 -12 -11 -12 -12 -12 -12 -13 -13 -13 -13 -13 -12 -13 -13 -13 -13 -13 -13 -14 -14 -14 -14 -14 -15 -15 -15 -14 -14 -14
-11 -11 -12 -11 -10 -11 -11 -11 -11 -11 -11 -11 -11 -12 -12 -11 -12 -12 -12 -12 -13 -13 -13 -13 -13 -13 -13 -13 -13 -13 -13 -13 -14 -14 -14 -14 -14 -15 -15 -15 -15 -15 -15
-12 -12 -11 -11 -11 -11 -11 -11 -11 -12 -12 -12 -12 -12 -12 -12 -12 -12 -12 -12 -13 -13 -13 -13 -13 -13 -13 -13 -13 -13 -13 -13 -13 -14 -14 -14 -14 -14 -14 -14 -14 -14 -15
-12 -11 -11 -11 -11 -12 -12 -12 -12 -12 -12 -12 -13 -12 -12 -12 -12 -12 -12 -12 -13 -13 -13 -13 -13 -13 -13 -13 -13 -13 -13 -13 -13 -14 -13 -14 -14 -14 -14 -14 -15 -14 -14
Height
5864 5858 5853 5849 5843 5837 5830 5824 5817 5811 5807 5806 5806 5804 5805 5805 5811 5812 5813 5815 5815 5815 5816 5821 5820 5823 5824 5827 5828 5831 5833 5833 5834 5834 5837 5837 5836 5837 5838 5838 5840 5842 5843
5853 5848 5842 5837 5831 5826 5820 5815 5809 5803 5800 5796 5792 5790 5788 5794 5799 5802 5804 5806 5809 5808 5809 5810 5812 5813 5816 5817 5818 5821 5824 5823 5825 5826 5828 5830 5830 5831 5832 5833 5836 5836 5837
5844 5839 5834 5828 5821 5816 5811 5807 5800 5796 5793 5788 5778 5773 5772 5781 5787 5794 5797 5801 5804 5802 5804 5805 5807 5807 5807 5808 5812 5816 5819 5818 5818 5820 5820 5822 5823 5825 5826 5828 5829 5829 5830
5835 5830 5825 5820 5814 5809 5804 5800 5794 5788 5784 5781 5773 5770 5770 5774 5781 5788 5793 5797 5799 5799 5798 5800 5803 5803 5805 5806 5808 5808 5810 5813 5814 5813 5813 5815 5818 5819 5819 5822 5822 5822 5823
5826 5822 5817 5812 5806 5801 5797 5791 5787 5782 5777 5771 5766 5760 5765 5769 5778 5783 5787 5789 5792 5791 5793 5795 5799 5798 5798 5801 5803 5806 5808 5808 5809 5810 5811 5811 5812 5812 5814 5816 5816 5817 5818
5817 5813 5808 5804 5799 5794 5789 5785 5781 5777 5771 5766 5767 5765 5764 5768 5773 5777 5782 5785 5785 5785 5787 5790 5792 5791 5792 5793 5796 5799 5801 5803 5805 5805 5805 5806 5808 5808 5809 5809 5810 5812 5812
5807 5803 5799 5795 5790 5787 5782 5778 5775 5773 5769 5764 5762 5761 5762 5764 5769 5773 5777 5779 5777 5779 5782 5784 5785 5786 5788 5789 5791 5793 5794 5796 5797 5797 5798 5799 5800 5801 5802 5803 5805 5806 5807
5796 5793 5789 5786 5781 5778 5775 5772 5771 5768 5766 5762 5760 5757 5759 5762 5766 5770 5772 5771 5771 5772 5773 5775 5776 5778 5780 5782 5785 5787 5788 5790 5791 5792 5793 5794 5795 5797 5798 5798 5799 5801 5802
5783 5780 5778 5776 5772 5769 5767 5766 5764 5764 5761 5759 5758 5758 5759 5760 5762 5763 5766 5765 5765 5767 5767 5769 5771 5773 5776 5778 5779 5780 5783 5785 5786 5786 5788 5788 5789 5791 5792 5793 5795 5796 5797
5771 5768 5767 5765 5763 5760 5758 5758 5757 5756 5755 5755 5754 5754 5754 5755 5757 5760 5761 5762 5762 5762 5763 5766 5768 5770 5771 5772 5772 5775 5777 5778 5779 5780 5783 5783 5783 5784 5785 5787 5788 5790 5792
5757 5755 5754 5753 5752 5750 5749 5749 5749 5748 5748 5747 5748 5749 5749 5750 5752 5755 5757 5758 5758 5759 5760 5761 5764 5764 5766 5766 5767 5770 5770 5772 5773 5774 5775 5777 5778 5778 5778 5779 5781 5783 5786
5745 5743 5742 5742 5741 5741 5740 5740 5741 5740 5741 5741 5740 5742 5742 5744 5746 5750 5751 5753 5755 5756 5757 5756 5758 5758 5759 5760 5762 5762 5763 5765 5766 5767 5768 5769 5770 5770 5771 5773 5774 5775 5778
5734 5732 5732 5731 5731 5732 5733 5733 5734 5734 5735 5736 5736 5737 5739 5739 5741 5743 5746 5747 5749 5750 5751 5751 5753 5753 5754 5754 5754 5755 5756 5757 5758 5759 5760 5762 5763 5763 5765 5766 5766 5768 5770
5723 5722 5722 5721 5723 5725 5726 5727 5727 5727 5728 5729 5729 5730 5732 5734 5736 5738 5740 5742 5743 5743 5745 5746 5746 5746 5746 5746 5747 5747 5748 5749 5751 5752 5752 5752 5754 5755 5757 5757 5758 5760 5763
5713 5713 5712 5713 5714 5716 5718 5718 5720 5722 5723 5723 5724 5725 5726 5727 5729 5731 5733 5735 5736 5738 5739 5739 5738 5737 5737 5737 5738 5739 5740 5741 5742 5742 5743 5744 5745 5746 5748 5749 5750 5752 5755
5705 5705 5705 5705 5707 5709 5709 5710 5712 5715 5717 5717 5718 5720 5721 5722 5723 5724 5726 5728 5730 5731 5732 5731 5730 5729 5730 5730 5731 5731 5732 5733 5733 5733 5733 5733 5734 5736 5737 5739 5740 5742 5745
5693 5693 5697 5697 5700 5702 5704 5704 5705 5708 5709 5710 5711 5712 5714 5715 5717 5719 5720 5721 5722 5722 5721 5721 5721 5722 5722 5723 5723 5722 5723 5723 5723 5724 5725 5724 5724 5725 5727 5728 5729 5731 5733
5686 5683 5689 5689 5691 5693 5696 5697 5699 5700 5700 5702 5703 5705 5707 5709 5710 5712 5713 5713 5712 5712 5712 5712 5712 5713 5713 5714 5714 5714 5714 5713 5713 5713 5714 5714 5714 5714 5714 5716 5717 5719 5720
5674 5677 5680 5682 5682 5685 5686 5690 5693 5694 5694 5695 5696 5698 5700 5701 5702 5703 5704 5704 5703 5704 5704 5704 5704 5704 5704 5704 5704 5704 5705 5704 5703 5702 5703 5703 5703 5702 5702 5703 5705 5706 5706
5668 5672 5670 5672 5673 5675 5679 5681 5684 5686 5688 5689 5690 5690 5692 5693 5693 5694 5695 5696 5695 5695 5694 5694 5694 5694 5694 5694 5694 5693 5693 5693 5693 5692 5693 5692 5691 5690 5690 5691 5692 5693 5693
5662 5659 5659 5658 5664 5666 5669 5674 5675 5678 5681 5682 5682 5683 5685 5686 5686 5687 5687 5687 5687 5686 5685 5684 5684 5684 5683 5683 5682 5682 5681 5681 5681 5682 5682 5681 5680 5679 5679 5679 5679 5680 5682
5658 5656 5655 5656 5654 5656 5660 5663 5666 5669 5672 5675 5674 5674 5676 5677 5677 5677 5677 5677 5677 5676 5676 5675 5675 5674 5673 5673 5672 5671 5672 5671 5670 5669 5668 5667 5668 5668 5667 5667 5668 5669 5669
5656 5655 5655 5655 5651 5650 5652 5654 5656 5660 5663 5666 5666 5666 5667 5669 5668 5667 5666 5666 5665 5665 5666 5666 5666 5665 5663 5662 5661 5660 5659 5659 5659 5657 5657 5655 5654 5656 5656 5657 5657 5658 5659
5649 5648 5650 5652 5646 5646 5646 5645 5649 5653 5655 5656 5657 5660 5659 5659 5660 5658 5658 5657 5657 5656 5654 5654 5653 5652 5651 5650 5649 5648 5648 5648 5646 5646 5644 5644 5643 5642 5642 5644 5646 5647 5648
5642 5642 5642 5643 5643 5643 5643 5645 5647 5649 5650 5650 5651 5653 5652 5652 5650 5650 5649 5649 5648 5646 5645 5643 5643 5641 5638 5637 5637 5636 5635 5635 5634 5634 5632 5632 5632 5631 5630 5631 5633 5634 5635
5637 5636 5637 5638 5637 5637 5637 5638 5639 5641 5643 5644 5644 5643 5643 5642 5640 5640 5639 5638 5637 5635 5633 5630 5629 5628 5626 5625 5624 5624 5623 5621 5620 5619 5619 5619 5619 5619 5619 5619 5619 5619 5621
Wind_Speed
37 41 40 40 38 34 32 31 34 40 44 43 46 43 46 41 42 35 29 26 28 36 39 44 33 40 37 39 41 36 31 38 31 33 35 29 33 30 28 23 19 21 22
40 43 45 44 42 36 35 33 30 31 28 36 45 51 50 46 40 28 26 31 28 21 22 21 32 37 38 32 20 19 36 30 26 27 26 31 37 31 26 21 21 21 22
42 44 45 44 41 36 35 32 29 28 29 38 31 37 31 46 32 31 30 32 28 23 19 19 19 16 22 13 14 17 21 30 29 30 28 26 24 16 15 18 21 22 23
43 45 45 43 38 34 32 28 29 28 28 31 25 22 37 33 27 29 31 32 29 24 23 24 22 18 17 20 21 19 19 19 21 24 21 19 17 20 20 22 24 23 22
45 45 43 42 38 32 30 27 27 29 30 28 32 19 34 21 28 31 27 26 27 22 22 23 25 19 17 17 18 19 19 19 19 19 19 19 21 23 24 24 24 22 21
46 44 43 41 38 30 29 28 27 25 29 31 31 24 23 31 32 29 27 27 26 27 24 24 23 20 19 18 18 20 19 19 20 20 20 21 22 23 23 22 20 18 15
47 45 42 41 41 31 26 28 27 25 26 28 25 26 29 31 27 28 27 22 25 24 26 24 19 19 20 20 21 22 21 21 19 20 21 20 21 20 19 18 18 16 16
45 43 41 39 41 36 28 24 26 24 23 23 18 25 29 27 28 27 27 28 26 27 25 22 20 22 22 22 22 22 20 20 20 18 17 19 20 20 19 19 18 19 18
43 43 40 37 38 33 29 23 24 23 22 20 19 18 19 27 22 17 20 25 27 27 25 22 19 20 22 22 22 20 19 19 19 18 17 20 21 20 20 21 22 20 20
42 40 36 34 36 34 26 22 24 25 24 21 18 20 24 21 22 23 21 21 21 19 16 15 17 20 21 22 21 20 21 21 20 19 18 17 18 18 19 20 20 21 23
42 38 33 31 33 29 23 23 24 26 24 22 19 20 23 28 23 24 20 19 15 15 16 17 18 18 19 19 20 23 23 20 21 22 20 18 19 19 20 19 19 22 24
39 35 31 30 31 28 22 22 23 23 23 20 18 19 19 23 28 30 21 20 17 17 19 17 17 17 18 19 20 21 19 18 20 21 22 22 22 22 23 23 21 22 25
37 33 30 30 27 20 16 17 19 21 21 18 17 15 15 13 15 18 21 21 21 20 19 17 18 19 20 21 22 21 21 21 22 23 24 25 26 26 23 23 23 24 26
34 33 29 31 27 19 17 17 19 20 21 21 19 17 17 19 20 20 20 20 21 21 20 20 20 21 21 22 23 25 25 25 24 25 26 26 26 26 25 26 29 29 27
32 31 28 30 26 21 19 17 17 19 20 22 20 20 20 20 20 19 20 22 23 24 23 24 25 25 25 25 25 25 26 26 25 27 28 28 27 27 30 32 33 33 30
32 29 30 27 26 24 20 18 18 18 20 21 20 21 23 25 24 25 25 25 26 27 27 28 28 27 27 26 26 27 27 27 28 29 29 30 29 29 30 32 35 35 34
31 26 27 23 24 24 23 20 21 20 22 23 23 23 24 26 28 30 30 30 29 29 29 30 29 28 28 28 28 29 29 29 29 28 28 30 30 30 31 33 33 35 36
25 21 26 25 24 24 25 24 23 22 23 23 22 23 24 25 27 28 29 30 29 29 29 29 30 30 30 29 29 30 31 31 31 30 30 29 30 32 34 35 36 36 38
24 25 31 28 28 29 28 25 24 25 23 23 23 23 23 24 24 24 25 27 28 27 28 28 28 29 30 30 30 31 32 33 33 33 32 32 33 33 35 37 38 39 41
24 43 34 31 29 32 32 28 25 26 25 22 22 23 22 23 24 26 27 28 28 28 30 30 31 31 32 34 35 38 39 37 34 33 35 36 37 34 32 35 37 38 40
15 12 19 19 31 30 35 33 28 27 28 25 25 26 26 26 27 26 27 28 28 29 30 31 33 33 35 37 40 41 38 33 30 30 29 32 35 33 30 32 34 36 37
16 16 16 17 20 27 34 33 33 30 30 28 28 29 29 30 31 30 29 28 27 30 31 31 31 32 35 38 39 38 37 35 37 36 36 34 34 36 33 32 32 31 34
16 17 17 14 10 19 24 33 36 33 32 32 32 32 33 33 30 28 28 29 30 30 32 32 29 32 31 33 37 37 31 31 34 39 37 34 34 35 35 33 35 32 31
17 19 19 18 9 10 11 16 20 29 36 35 29 25 28 29 28 28 28 30 26 30 31 32 33 31 31 34 35 34 36 36 35 35 36 36 37 36 37 37 35 34 34
22 21 20 17 15 15 11 12 14 17 20 22 24 27 26 27 26 27 29 31 33 33 34 39 38 37 36 37 37 34 34 37 36 36 37 38 38 41 37 36 37 37 39
21 19 20 15 14 13 13 13 15 18 19 20 24 28 31 32 29 29 32 34 36 38 37 40 38 40 41 40 39 38 39 38 41 40 41 40 41 40 42 41 41 43 44
Wind_Direction
322 323 325 323 320 317 315 306 297 289 282 276 266 260 265 242 247 240 242 251 261 258 261 254 257 244 246 254 260 255 253 255 265 246 247 235 260 252 247 245 243 245 249
321 323 324 325 323 318 314 315 311 303 297 292 280 282 259 231 229 230 240 251 259 260 271 273 261 253 251 240 231 249 228 238 237 242 242 249 245 245 254 253 254 251 255
317 320 322 323 320 315 314 316 314 314 306 315 305 280 224 220 207 224 241 248 249 252 262 275 268 247 231 246 261 265 260 251 256 255 232 231 242 271 275 264 259 258 260
314 318 318 320 318 310 310 312 313 313 314 310 287 262 242 202 202 219 239 243 243 255 263 269 272 267 255 252 249 246 247 252 257 257 265 279 281 271 265 265 263 262 264
312 313 314 317 318 307 305 305 306 311 317 326 313 223 208 214 205 219 234 241 246 259 267 262 266 267 260 265 265 264 261 258 260 266 269 275 278 273 272 269 264 260 257
305 306 310 314 314 302 301 301 306 315 309 312 316 227 206 209 209 216 235 248 264 267 275 271 267 259 250 244 246 250 250 249 256 259 261 263 261 262 262 261 260 253 245
301 301 305 309 309 302 300 296 299 309 309 310 316 247 212 215 214 227 238 252 261 269 277 264 259 254 246 243 237 239 243 248 246 246 243 245 251 257 258 253 242 239 243
298 299 300 305 304 300 297 286 289 300 300 302 311 273 231 224 223 233 247 264 273 275 269 256 243 238 234 236 241 246 242 243 242 244 247 253 256 256 251 245 242 245 237
296 295 297 299 300 297 290 280 279 286 288 295 292 264 247 245 229 255 271 273 275 270 262 245 236 235 237 239 243 239 241 241 237 236 249 256 252 249 245 241 241 243 230
290 289 290 292 294 289 289 278 274 278 279 275 281 278 258 253 244 262 275 268 265 255 235 237 238 238 239 241 238 239 239 243 242 239 245 251 254 252 250 245 240 235 223
286 286 288 289 287 282 291 280 266 274 271 271 271 275 255 241 243 245 253 248 244 247 245 242 245 244 243 244 245 246 247 252 247 248 250 251 252 251 254 251 245 239 224
286 285 284 281 279 286 289 275 265 268 272 267 277 278 267 251 244 253 241 240 246 251 247 246 249 248 248 248 247 250 255 252 252 255 255 256 256 254 248 246 244 239 231
287 281 280 278 280 279 260 255 255 262 267 269 273 271 259 250 243 242 243 240 250 253 255 258 262 262 260 253 254 257 256 252 252 254 256 256 253 253 255 249 241 238 238
285 279 280 274 274 260 250 254 254 254 263 265 269 268 255 246 247 244 239 247 252 254 258 265 272 270 266 263 262 261 262 261 261 261 261 262 265 260 252 249 245 241 241
280 282 273 270 268 252 253 254 248 254 256 250 258 262 258 242 238 240 242 245 250 257 268 275 276 275 274 269 267 265 266 267 265 263 263 263 262 261 257 249 245 244 242
281 279 271 269 265 251 250 253 251 256 255 245 246 250 252 251 245 244 247 253 260 269 272 274 277 276 273 267 268 268 268 268 266 262 261 264 264 262 257 257 252 249 245
266 264 264 258 255 256 256 248 250 252 250 240 239 243 247 251 251 252 255 260 265 271 276 276 273 271 268 266 268 270 271 270 268 269 267 267 268 269 268 264 261 257 251
281 262 261 250 248 248 255 253 252 252 251 245 244 247 251 255 259 263 266 268 270 270 271 272 272 271 270 273 277 278 279 279 280 278 274 270 273 274 271 266 264 261 259
276 258 254 247 245 245 247 257 258 255 255 250 249 253 255 260 266 272 274 274 276 278 276 272 269 268 268 273 276 276 279 280 281 278 276 269 272 270 268 265 261 259 259
281 270 250 252 240 248 249 248 252 255 255 254 253 252 255 262 269 274 277 279 280 280 280 280 280 279 277 277 281 281 284 286 281 279 275 274 274 268 262 262 261 261 261
308 287 263 256 246 249 247 249 249 253 255 253 253 256 259 265 269 272 279 277 276 276 277 280 280 280 284 280 285 286 283 280 277 279 279 279 269 269 263 260 259 260 263
288 295 308 282 255 247 245 244 241 248 249 253 254 260 268 279 277 278 280 282 280 277 275 275 276 278 280 280 283 283 280 277 274 279 279 276 272 264 265 263 258 255 256
273 282 289 298 267 235 238 242 238 237 247 250 253 263 273 275 280 274 279 283 281 278 279 271 279 286 279 274 276 280 277 282 277 271 271 271 271 268 265 262 263 263 262
275 282 287 287 294 292 306 241 234 242 249 254 262 269 269 273 270 272 276 282 283 282 276 278 285 286 280 274 274 278 275 279 279 275 273 274 268 261 262 262 260 260 261
277 280 284 282 267 267 285 265 250 252 257 264 265 269 267 272 274 274 275 277 278 280 280 280 280 282 279 276 276 272 273 270 271 274 276 275 273 265 258 259 260 263 262
287 273 269 270 260 266 264 253 253 263 263 260 267 269 268 268 266 274 280 286 285 286 282 287 283 282 277 275 281 276 273 273 268 272 271 269 269 267 266 265 263 263 261